Bend, OR

9:46 PM PST on February 20, 2018 (GMT -0800)
Bend Municipal

Weather History for KBDN - February, 2014

Change the Weather History Date:

Sunday, February 16, 2014

  Actual Average (KRDM) Record (KRDM)
Temperature  
Mean Temperature 38 °F -  
Max Temperature 44 °F 43 °F 62 °F (1977)
Min Temperature 32 °F 24 °F -1 °F (1956)
Degree Days  
Heating Degree Days 27    
Moisture  
Dew Point 24 °F    
Average Humidity 59    
Maximum Humidity 80    
Minimum Humidity 42    
Precipitation  
Precipitation 0.00 in - - ()
Sea Level Pressure  
Sea Level Pressure 29.95 in    
Wind  
Wind Speed 12 mph (SW)    
Max Wind Speed 29 mph    
Max Gust Speed 40 mph    
Visibility 10 miles    
Events      
Averages and records for this station are not official NWS values.
T = Trace of Precipitation, MM = Missing Value Source: NWS Daily Summary

Daily Weather History Graph

Daily Weather History Graph

Search for Another Location

Airport or City:

Trip Planner

Search our weather history database for the weather conditions in past years. The results will help you decide how hot, cold, wet, or windy it might be!

Date:

Astronomy

Feb. 16, 2014 Rise Set
Actual Time 7:02 AM PST 5:35 PM PST
Civil Twilight 6:32 AM PST 6:05 PM PST
Nautical Twilight 5:59 AM PST 6:39 PM PST
Astronomical Twilight 5:25 AM PST 7:12 PM PST
Moon 7:43 PM PST (2/16) 7:29 AM PST (2/16)
Length of Visible Light 11h 32m
Length of Day
10h 33m
Full, 97% of the Moon is Illuminated
Feb 16
Full
Feb 22
Last Quarter
Mar 1
New
Mar 8
First Quarter
Mar 16
Full

Hourly Weather History & Observations

Time (PST) Temp. Windchill Dew Point Humidity Pressure Visibility Wind Dir Wind Speed Gust Speed Precip Events Conditions
12:15 AM 35.6 °F 32.8 °F 24.8 °F 65% 29.78 in 10.0 mi SSE 3.5 mph - N/A   Scattered Clouds
12:35 AM 35.6 °F - 24.8 °F 65% 29.79 in 10.0 mi Calm Calm - N/A   Scattered Clouds
12:55 AM 35.6 °F 27.1 °F 23.0 °F 60% 29.79 in 10.0 mi SW 12.7 mph - N/A   Partly Cloudy
1:15 AM 35.6 °F 27.1 °F 23.0 °F 60% 29.79 in 10.0 mi SW 12.7 mph 21.9 mph N/A   Clear
1:35 AM 33.8 °F 24.3 °F 24.8 °F 70% 29.79 in 10.0 mi SSW 13.8 mph - N/A   Clear
1:55 AM 33.8 °F 23.9 °F 24.8 °F 70% 29.79 in 10.0 mi SSW 15.0 mph - N/A   Clear
2:15 AM 33.8 °F 23.2 °F 24.8 °F 70% 29.80 in 10.0 mi SW 17.3 mph 25.3 mph N/A   Clear
2:35 AM 32.0 °F 22.5 °F 24.8 °F 75% 29.81 in 10.0 mi SSW 12.7 mph 19.6 mph N/A   Clear
2:55 AM 32.0 °F 22.5 °F 26.6 °F 80% 29.82 in 10.0 mi SSW 12.7 mph 17.3 mph N/A   Clear
3:15 AM 32.0 °F - 26.6 °F 80% 29.83 in 10.0 mi Calm Calm - N/A   Partly Cloudy
3:35 AM 33.8 °F 28.6 °F 24.8 °F 70% 29.83 in 10.0 mi WSW 5.8 mph - N/A   Scattered Clouds
3:55 AM 32.0 °F 27.5 °F 24.8 °F 75% 29.85 in 10.0 mi NNW 4.6 mph - N/A   Partly Cloudy
4:15 AM 32.0 °F - 24.8 °F 75% 29.86 in 10.0 mi Calm Calm - N/A   Scattered Clouds
4:35 AM 32.0 °F 23.6 °F 23.0 °F 69% 29.86 in 10.0 mi SW 10.4 mph - N/A   Partly Cloudy
4:55 AM 32.0 °F 22.5 °F 24.8 °F 75% 29.86 in 10.0 mi South 12.7 mph - N/A   Clear
5:15 AM 32.0 °F 23.6 °F 23.0 °F 69% 29.87 in 10.0 mi SW 10.4 mph 16.1 mph N/A   Clear
5:35 AM 32.0 °F 21.6 °F 23.0 °F 69% 29.88 in 10.0 mi WSW 15.0 mph 20.7 mph N/A   Clear
5:55 AM 32.0 °F 21.2 °F 23.0 °F 69% 29.89 in 10.0 mi SSW 16.1 mph 21.9 mph N/A   Clear
6:15 AM 32.0 °F 24.2 °F 23.0 °F 69% 29.89 in 10.0 mi SW 9.2 mph - N/A   Clear
6:35 AM 32.0 °F 22.5 °F 21.2 °F 64% 29.89 in 10.0 mi SW 12.7 mph 16.1 mph N/A   Clear
6:55 AM 32.0 °F 23.6 °F 23.0 °F 69% 29.90 in 10.0 mi WSW 10.4 mph - N/A   Clear
7:15 AM 32.0 °F 24.2 °F 23.0 °F 69% 29.92 in 10.0 mi WSW 9.2 mph 16.1 mph N/A   Clear
7:35 AM 32.0 °F 23.0 °F 23.0 °F 69% 29.93 in 10.0 mi SW 11.5 mph 21.9 mph N/A   Clear
7:55 AM 32.0 °F 21.6 °F 23.0 °F 69% 29.94 in 10.0 mi SW 15.0 mph 21.9 mph N/A   Partly Cloudy
8:15 AM 32.0 °F 22.5 °F 24.8 °F 75% 29.96 in 10.0 mi SW 12.7 mph - N/A   Partly Cloudy
8:35 AM 33.8 °F 24.8 °F 24.8 °F 70% 29.97 in 10.0 mi SW 12.7 mph - N/A   Clear
8:55 AM 35.6 °F 26.6 °F 24.8 °F 65% 29.98 in 10.0 mi SW 13.8 mph 18.4 mph N/A   Clear
9:15 AM 35.6 °F 26.6 °F 24.8 °F 65% 29.99 in 10.0 mi SSW 13.8 mph 18.4 mph N/A   Scattered Clouds
9:35 AM 37.4 °F 29.8 °F 21.2 °F 52% 30.01 in 10.0 mi SW 11.5 mph - N/A   Scattered Clouds
9:55 AM 39.2 °F 31.2 °F 19.4 °F 45% 30.02 in 10.0 mi West 13.8 mph 23.0 mph N/A   Partly Cloudy
10:15 AM 37.4 °F 32.1 °F 23.0 °F 56% 30.02 in 10.0 mi SW 6.9 mph - N/A   Partly Cloudy
10:35 AM 39.2 °F 32.0 °F 23.0 °F 52% 30.03 in 10.0 mi WSW 11.5 mph 19.6 mph N/A   Mostly Cloudy
10:55 AM 39.2 °F 31.2 °F 21.2 °F 49% 30.03 in 10.0 mi WSW 13.8 mph 24.2 mph N/A   Scattered Clouds
11:15 AM 39.2 °F 30.2 °F 23.0 °F 52% 30.03 in 10.0 mi SW 17.3 mph 25.3 mph N/A   Partly Cloudy
11:35 AM 41.0 °F 32.2 °F 23.0 °F 49% 30.04 in 10.0 mi SW 18.4 mph 25.3 mph N/A   Clear
11:55 AM 41.0 °F 31.9 °F 23.0 °F 49% 30.03 in 10.0 mi SSW 19.6 mph 29.9 mph N/A   Clear
12:15 PM 41.0 °F 31.9 °F 23.0 °F 49% 30.04 in 10.0 mi SW 19.6 mph 27.6 mph N/A   Clear
12:35 PM 41.0 °F 31.4 °F 21.2 °F 45% 30.03 in 10.0 mi SW 21.9 mph 29.9 mph N/A   Clear
12:55 PM 41.0 °F 31.1 °F 19.4 °F 42% 30.03 in 10.0 mi SW 23.0 mph 28.8 mph N/A   Clear
1:15 PM 41.0 °F 31.6 °F 19.4 °F 42% 30.03 in 10.0 mi SSW 20.7 mph 27.6 mph N/A   Clear
1:35 PM 42.8 °F 34.3 °F 23.0 °F 46% 30.03 in 10.0 mi SW 19.6 mph 28.8 mph N/A   Clear
1:55 PM 41.0 °F 32.2 °F 23.0 °F 49% 30.03 in 10.0 mi SW 18.4 mph 27.6 mph N/A   Clear
2:15 PM 42.8 °F 34.0 °F 23.0 °F 46% 30.03 in 10.0 mi SW 20.7 mph 29.9 mph N/A   Clear
2:35 PM 42.8 °F 34.0 °F 23.0 °F 46% 30.02 in 10.0 mi SW 20.7 mph 33.4 mph N/A   Clear
2:55 PM 42.8 °F 33.3 °F 23.0 °F 46% 30.02 in 10.0 mi SW 24.2 mph 31.1 mph N/A   Clear
3:15 PM 44.6 °F 36.6 °F 23.0 °F 43% 30.02 in 10.0 mi SW 19.6 mph 29.9 mph N/A   Clear
3:35 PM 44.6 °F 37.8 °F 23.0 °F 43% 30.01 in 10.0 mi SW 15.0 mph 24.2 mph N/A   Clear
3:55 PM 44.6 °F 38.8 °F 24.8 °F 46% 30.01 in 10.0 mi SW 11.5 mph 19.6 mph N/A   Clear
4:15 PM 44.6 °F 38.8 °F 23.0 °F 43% 30.02 in 10.0 mi SW 11.5 mph 16.1 mph N/A   Clear
4:35 PM 44.6 °F 38.1 °F 24.8 °F 46% 30.03 in 10.0 mi SW 13.8 mph 20.7 mph N/A   Partly Cloudy
4:55 PM 42.8 °F 36.6 °F 23.0 °F 46% 30.03 in 10.0 mi West 11.5 mph 18.4 mph N/A   Partly Cloudy
5:15 PM 41.0 °F 36.4 °F 23.0 °F 49% 30.03 in 10.0 mi SW 6.9 mph - N/A   Partly Cloudy
5:35 PM 41.0 °F 34.7 °F 24.8 °F 53% 30.03 in 10.0 mi WSW 10.4 mph - N/A   Scattered Clouds
5:55 PM 41.0 °F 36.4 °F 24.8 °F 53% 30.03 in 10.0 mi SW 6.9 mph - N/A   Clear
6:15 PM 39.2 °F 35.0 °F 24.8 °F 56% 30.02 in 10.0 mi South 5.8 mph 17.3 mph N/A   Clear
6:35 PM 39.2 °F 33.0 °F 24.8 °F 56% 30.02 in 10.0 mi SW 9.2 mph - N/A   Clear
6:55 PM 39.2 °F 30.5 °F 24.8 °F 56% 30.01 in 10.0 mi SSW 16.1 mph 24.2 mph N/A   Clear
7:15 PM 39.2 °F 29.3 °F 24.8 °F 56% 30.00 in 10.0 mi SSW 20.7 mph 28.8 mph N/A   Clear
7:35 PM 39.2 °F 30.2 °F 24.8 °F 56% 30.00 in 10.0 mi SSW 17.3 mph 33.4 mph N/A   Clear
7:55 PM 39.2 °F 29.3 °F 24.8 °F 56% 29.98 in 10.0 mi SSW 20.7 mph 32.2 mph N/A   Clear
8:15 PM 39.2 °F 29.8 °F 24.8 °F 56% 29.99 in 10.0 mi SSW 18.4 mph 31.1 mph N/A   Clear
8:35 PM 37.4 °F 27.5 °F 24.8 °F 60% 29.98 in 10.0 mi SSW 18.4 mph 25.3 mph N/A   Clear
8:55 PM 37.4 °F 26.9 °F 24.8 °F 60% 29.98 in 10.0 mi SSW 20.7 mph 25.3 mph N/A   Clear
9:15 PM 37.4 °F 27.2 °F 24.8 °F 60% 29.98 in 10.0 mi SSW 19.6 mph 25.3 mph N/A   Clear
9:35 PM 37.4 °F 26.1 °F 24.8 °F 60% 29.97 in 10.0 mi SSW 24.2 mph 32.2 mph N/A   Clear
9:55 PM 37.4 °F 26.4 °F 24.8 °F 60% 29.96 in 10.0 mi SSW 23.0 mph 34.5 mph N/A   Clear
10:15 PM 37.4 °F 25.9 °F 24.8 °F 60% 29.96 in 10.0 mi SSW 25.3 mph 34.5 mph N/A   Clear
10:35 PM 39.2 °F 28.0 °F 24.8 °F 56% 29.95 in 10.0 mi SSW 26.5 mph 40.3 mph N/A   Clear
10:55 PM 37.4 °F 25.9 °F 23.0 °F 56% 29.95 in 10.0 mi SSW 25.3 mph 32.2 mph N/A   Clear
11:15 PM 39.2 °F 28.0 °F 23.0 °F 52% 29.93 in 10.0 mi SSW 26.5 mph 36.8 mph N/A   Clear
11:35 PM 37.4 °F 25.2 °F 23.0 °F 56% 29.93 in 10.0 mi SSW 28.8 mph 38.0 mph N/A   Clear
11:55 PM 37.4 °F 25.2 °F 23.0 °F 56% 29.93 in 10.0 mi SW 28.8 mph 34.5 mph N/A   Clear